• In Hungary
  • List of Countries
  • For 7 days
  • Water Temperature
  • Satellite Maps
  • Weather Map
  • News
  • Weather Widgets
  • user-avatar
    Login

    Hourly Weather El Guna

    Today, 20 August, Sunday

    Time Temperature Precipitation Wind Pressure Humidity
    00:00 +35°C° 0 mm 3 mps 730 mmHg 21%
    01:00 +35°C° 0 mm 3 mps 730 mmHg 22%
    02:00 +34°C° 0 mm 4 mps 729 mmHg 22%
    03:00 +34°C° 0 mm 4 mps 729 mmHg 23%
    04:00 +33°C° 0 mm 3 mps 729 mmHg 25%
    05:00 +31°C° 0 mm 3 mps 730 mmHg 27%
    06:00 +34°C° 0 mm 4 mps 730 mmHg 26%
    07:00 +35°C° 0 mm 4 mps 730 mmHg 25%
    08:00 +37°C° 0 mm 5 mps 730 mmHg 24%
    09:00 +39°C° 0 mm 5 mps 730 mmHg 22%
    10:00 +40°C° 0 mm 5 mps 730 mmHg 20%
    11:00 +42°C° 0 mm 6 mps 730 mmHg 18%
    12:00 +42°C° 0 mm 6 mps 730 mmHg 17%
    13:00 +44°C° 0 mm 6 mps 730 mmHg 16%
    14:00 +45°C° 0 mm 6 mps 729 mmHg 15%
    15:00 +44°C° 0 mm 6 mps 729 mmHg 16%
    16:00 +44°C° 0 mm 6 mps 729 mmHg 17%
    17:00 +44°C° 0 mm 6 mps 729 mmHg 18%
    18:00 +41°C° 0 mm 6 mps 729 mmHg 20%
    19:00 +40°C° 0 mm 5 mps 729 mmHg 23%
    20:00 +37°C° 0 mm 4 mps 729 mmHg 26%
    21:00 +37°C° 0 mm 4 mps 729 mmHg 26%
    22:00 +37°C° 0 mm 4 mps 729 mmHg 27%
    23:00 +36°C° 0 mm 4 mps 729 mmHg 27%

    Tomorrow, 21 August, Monday

    Time Temperature Precipitation Wind Pressure Humidity
    00:00 +36°C° 0 mm 4 mps 729 mmHg 28%
    01:00 +35°C° 0 mm 5 mps 729 mmHg 30%
    02:00 +35°C° 0 mm 5 mps 729 mmHg 31%
    03:00 +34°C° 0 mm 5 mps 729 mmHg 33%
    04:00 +33°C° 0 mm 5 mps 728 mmHg 36%
    05:00 +32°C° 0 mm 5 mps 728 mmHg 38%
    06:00 +33°C° 0 mm 5 mps 729 mmHg 36%
    07:00 +35°C° 0 mm 6 mps 729 mmHg 33%
    08:00 +36°C° 0 mm 7 mps 729 mmHg 30%
    09:00 +38°C° 0 mm 7 mps 729 mmHg 27%
    10:00 +39°C° 0 mm 7 mps 729 mmHg 24%
    11:00 +41°C° 0 mm 7 mps 729 mmHg 21%
    12:00 +41°C° 0 mm 7 mps 729 mmHg 19%
    13:00 +43°C° 0 mm 7 mps 729 mmHg 18%
    14:00 +44°C° 0 mm 7 mps 728 mmHg 16%
    15:00 +43°C° 0 mm 7 mps 728 mmHg 16%
    16:00 +43°C° 0 mm 7 mps 728 mmHg 16%
    17:00 +43°C° 0 mm 7 mps 727 mmHg 17%
    18:00 +40°C° 0 mm 6 mps 728 mmHg 18%
    19:00 +39°C° 0 mm 5 mps 728 mmHg 19%
    20:00 +37°C° 0 mm 4 mps 728 mmHg 20%
    21:00 +36°C° 0 mm 5 mps 728 mmHg 21%
    22:00 +36°C° 0 mm 5 mps 728 mmHg 21%
    23:00 +35°C° 0 mm 5 mps 728 mmHg 22%

    Day after tomorrow, 22 August, Tuesday

    Time Temperature Precipitation Wind Pressure Humidity
    00:00 +35°C° 0 mm 5 mps 728 mmHg 25%
    01:00 +34°C° 0 mm 5 mps 728 mmHg 29%
    02:00 +33°C° 0 mm 6 mps 728 mmHg 32%
    03:00 +32°C° 0 mm 5 mps 728 mmHg 34%
    04:00 +32°C° 0 mm 5 mps 728 mmHg 36%
    05:00 +30°C° 0 mm 5 mps 728 mmHg 37%
    06:00 +33°C° 0 mm 5 mps 729 mmHg 34%
    07:00 +34°C° 0 mm 6 mps 729 mmHg 30%
    08:00 +35°C° 0 mm 7 mps 730 mmHg 26%
    09:00 +36°C° 0 mm 7 mps 729 mmHg 23%
    10:00 +39°C° 0 mm 7 mps 729 mmHg 20%
    11:00 +40°C° 0 mm 7 mps 729 mmHg 18%
    12:00 +41°C° 0 mm 7 mps 729 mmHg 17%
    13:00 +43°C° 0 mm 7 mps 728 mmHg 16%
    14:00 +44°C° 0 mm 7 mps 728 mmHg 15%
    15:00 +43°C° 0 mm 7 mps 727 mmHg 15%
    16:00 +43°C° 0 mm 7 mps 727 mmHg 16%
    17:00 +41°C° 0 mm 7 mps 727 mmHg 16%
    18:00 +40°C° 0 mm 6 mps 727 mmHg 17%
    19:00 +39°C° 0 mm 5 mps 727 mmHg 19%
    20:00 +36°C° 0 mm 5 mps 727 mmHg 20%
    21:00 +36°C° 0 mm 5 mps 727 mmHg 22%
    22:00 +35°C° 0 mm 5 mps 727 mmHg 24%
    23:00 +34°C° 0 mm 5 mps 728 mmHg 26%

    23 August, Wednesday

    Time Temperature Precipitation Wind Pressure Humidity
    00:00 +34°C° 0 mm 5 mps 727 mmHg 28%
    01:00 +33°C° 0 mm 5 mps 727 mmHg 31%
    02:00 +32°C° 0 mm 5 mps 727 mmHg 34%
    03:00 +32°C° 0 mm 5 mps 727 mmHg 34%
    04:00 +30°C° 0 mm 5 mps 727 mmHg 34%
    05:00 +30°C° 0 mm 4 mps 727 mmHg 34%
    06:00 +32°C° 0 mm 5 mps 728 mmHg 30%
    07:00 +33°C° 0 mm 5 mps 728 mmHg 26%
    08:00 +35°C° 0 mm 5 mps 728 mmHg 22%
    09:00 +36°C° 0 mm 6 mps 728 mmHg 20%
    10:00 +39°C° 0 mm 6 mps 728 mmHg 18%
    11:00 +40°C° 0 mm 6 mps 728 mmHg 16%
    12:00 +41°C° 0 mm 5 mps 728 mmHg 16%
    13:00 +42°C° 0 mm 5 mps 727 mmHg 15%
    14:00 +43°C° 0 mm 5 mps 727 mmHg 15%
    15:00 +42°C° 0 mm 6 mps 727 mmHg 16%
    16:00 +42°C° 0 mm 6 mps 726 mmHg 17%
    17:00 +42°C° 0 mm 6 mps 726 mmHg 18%
    18:00 +40°C° 0 mm 6 mps 727 mmHg 20%
    19:00 +39°C° 0 mm 5 mps 727 mmHg 22%
    20:00 +37°C° 0 mm 4 mps 727 mmHg 24%
    21:00 +36°C° 0 mm 4 mps 727 mmHg 25%
    22:00 +36°C° 0 mm 4 mps 727 mmHg 26%
    23:00 +35°C° 0 mm 4 mps 727 mmHg 27%

    24 August, Thursday

    Time Temperature Precipitation Wind Pressure Humidity
    00:00 +35°C° 0 mm 4 mps 727 mmHg 28%
    01:00 +34°C° 0 mm 4 mps 727 mmHg 30%
    02:00 +33°C° 0 mm 4 mps 726 mmHg 32%
    03:00 +33°C° 0 mm 4 mps 726 mmHg 33%
    04:00 +32°C° 0 mm 4 mps 727 mmHg 33%
    05:00 +31°C° 0 mm 3 mps 727 mmHg 34%
    06:00 +33°C° 0 mm 4 mps 727 mmHg 31%
    07:00 +35°C° 0 mm 5 mps 727 mmHg 27%
    08:00 +37°C° 0 mm 5 mps 728 mmHg 24%
    09:00 +40°C° 0 mm 5 mps 728 mmHg 21%
    10:00 +41°C° 0 mm 5 mps 728 mmHg 19%
    11:00 +43°C° 0 mm 5 mps 728 mmHg 17%
    12:00 +45°C° 0 mm 5 mps 727 mmHg 16%
    13:00 +46°C° 0 mm 5 mps 727 mmHg 16%
    14:00 +47°C° 0 mm 5 mps 727 mmHg 15%
    15:00 +46°C° 0 mm 5 mps 726 mmHg 17%
    16:00 +45°C° 0 mm 6 mps 726 mmHg 18%
    17:00 +45°C° 0 mm 6 mps 726 mmHg 20%
    18:00 +42°C° 0 mm 5 mps 726 mmHg 22%
    19:00 +41°C° 0 mm 5 mps 727 mmHg 23%
    20:00 +40°C° 0 mm 4 mps 727 mmHg 25%
    21:00 +40°C° 0 mm 4 mps 727 mmHg 25%
    22:00 +38°C° 0 mm 4 mps 727 mmHg 25%
    23:00 +38°C° 0 mm 4 mps 726 mmHg 25%

    25 August, Friday

    Time Temperature Precipitation Wind Pressure Humidity
    00:00 +37°C° 0 mm 4 mps 726 mmHg 27%
    01:00 +37°C° 0 mm 4 mps 726 mmHg 28%
    02:00 +36°C° 0 mm 4 mps 726 mmHg 29%
    03:00 +36°C° 0 mm 4 mps 726 mmHg 31%
    04:00 +36°C° 0 mm 4 mps 726 mmHg 32%
    05:00 +35°C° 0 mm 4 mps 727 mmHg 33%
    06:00 +37°C° 0 mm 4 mps 727 mmHg 31%
    07:00 +38°C° 0 mm 4 mps 727 mmHg 28%
    08:00 +40°C° 0 mm 4 mps 728 mmHg 26%
    09:00 +42°C° 0 mm 4 mps 728 mmHg 23%
    10:00 +43°C° 0 mm 5 mps 728 mmHg 20%
    11:00 +46°C° 0 mm 5 mps 728 mmHg 18%
    12:00 +47°C° 0 mm 5 mps 727 mmHg 17%
    13:00 +47°C° 0 mm 5 mps 727 mmHg 16%
    14:00 +48°C° 0 mm 5 mps 727 mmHg 15%
    15:00 +47°C° 0 mm 5 mps 727 mmHg 16%
    16:00 +47°C° 0 mm 5 mps 727 mmHg 17%
    17:00 +46°C° 0 mm 5 mps 726 mmHg 19%
    18:00 +45°C° 0 mm 5 mps 727 mmHg 21%
    19:00 +42°C° 0 mm 4 mps 727 mmHg 24%
    20:00 +41°C° 0 mm 4 mps 727 mmHg 27%
    21:00 +40°C° 0 mm 4 mps 727 mmHg 27%
    22:00 +40°C° 0 mm 4 mps 727 mmHg 28%
    23:00 +38°C° 0 mm 3 mps 727 mmHg 28%
    Show more